Torna al catalogo

FENGYUN 1C DEB

AttivoSSO
NORAD 30571·DEBRIS·🇨🇳 China

Lanciato May 10, 1999 da Taiyuan Satellite Launch Center

Loading…

Prossimi Passaggi (prossime 24 ore)

TLE

AggiornatoSource: Space-Track

Epoca: Sep 13, 2026, 08:35 UTC

1 30571U 99025ALM 26256.35768314  .00000296  00000-0  18810-3 0  9997
2 30571  98.7092 279.4698 0021620 173.4144 201.0885 14.10922532  7531

Traccia FENGYUN 1C DEB in tempo reale con AllMySat

Download on the App Store